TimeEDT,TemperatureF,Dew PointF,Humidity,Sea Level PressureIn,VisibilityMPH,Wind Direction,Wind SpeedMPH,Gust SpeedMPH,PrecipitationIn,Events,Conditions,WindDirDegrees,DateUTC
12:53 AM,35.1,33.1,92,29.88,10.0,NW,4.6,-,N/A,,Overcast,310,2013-03-28 04:53:00
1:53 AM,35.1,33.1,92,29.88,10.0,NW,6.9,-,N/A,,Overcast,320,2013-03-28 05:53:00
2:51 AM,33.8,32.0,93,29.85,2.0,North,9.2,-,N/A,,Overcast,350,2013-03-28 06:51:00
2:53 AM,34.0,32.0,92,29.87,2.0,North,10.4,-,N/A,,Overcast,350,2013-03-28 06:53:00
3:02 AM,33.8,32.0,93,29.84,10.0,NNW,5.8,-,N/A,,Overcast,340,2013-03-28 07:02:00
3:53 AM,34.0,33.1,96,29.86,10.0,NW,5.8,-,N/A,,Overcast,320,2013-03-28 07:53:00
4:53 AM,33.1,32.0,96,29.87,10.0,North,5.8,-,N/A,,Overcast,350,2013-03-28 08:53:00
5:53 AM,33.1,30.9,92,29.88,10.0,North,8.1,-,N/A,,Overcast,360,2013-03-28 09:53:00
6:53 AM,32.0,30.0,92,29.88,10.0,North,8.1,-,N/A,,Clear,360,2013-03-28 10:53:00
7:53 AM,35.1,30.0,82,29.90,10.0,North,9.2,-,N/A,,Clear,360,2013-03-28 11:53:00
8:53 AM,37.9,28.0,68,29.90,10.0,North,5.8,-,N/A,,Clear,10,2013-03-28 12:53:00
9:53 AM,39.9,27.0,60,29.91,10.0,North,12.7,-,N/A,,Mostly Cloudy,350,2013-03-28 13:53:00
10:53 AM,41.0,25.0,53,29.91,10.0,NNW,9.2,-,N/A,,Scattered Clouds,340,2013-03-28 14:53:00
11:53 AM,42.1,24.1,49,29.90,10.0,NNW,10.4,-,N/A,,Mostly Cloudy,340,2013-03-28 15:53:00
12:53 PM,44.1,21.9,42,29.88,10.0,North,9.2,-,N/A,,Overcast,360,2013-03-28 16:53:00
1:53 PM,45.0,21.9,40,29.88,10.0,NNW,10.4,-,N/A,,Mostly Cloudy,330,2013-03-28 17:53:00
2:53 PM,45.0,21.0,39,29.86,10.0,NNW,5.8,16.1,N/A,,Overcast,330,2013-03-28 18:53:00
3:53 PM,46.0,23.0,40,29.86,10.0,North,5.8,-,N/A,,Overcast,350,2013-03-28 19:53:00
4:53 PM,46.0,21.9,39,29.85,10.0,NNW,11.5,16.1,N/A,,Overcast,340,2013-03-28 20:53:00
5:53 PM,44.1,25.0,47,29.86,10.0,NNW,16.1,-,N/A,,Overcast,330,2013-03-28 21:53:00
6:53 PM,42.1,25.0,51,29.88,10.0,NNW,6.9,-,N/A,,Overcast,330,2013-03-28 22:53:00
7:53 PM,41.0,25.0,53,29.88,10.0,NW,5.8,-,N/A,,Overcast,320,2013-03-28 23:53:00
8:53 PM,39.9,25.0,55,29.90,10.0,WNW,5.8,-,N/A,,Mostly Cloudy,300,2013-03-29 00:53:00
9:53 PM,37.9,28.0,68,29.90,10.0,WNW,5.8,-,N/A,,Partly Cloudy,290,2013-03-29 01:53:00
10:53 PM,36.0,30.0,79,29.89,10.0,WNW,6.9,-,N/A,,Mostly Cloudy,300,2013-03-29 02:53:00
11:53 PM,35.1,30.9,85,29.89,10.0,WNW,8.1,-,N/A,,Partly Cloudy,290,2013-03-29 03:53:00